Location: Melbourne
(37.8666°S, 145.1333°E)
Time: 07:52:43
(UTC+10:00)

Amateur Radio Satellites - All Passes

Search period start: 17 April 2014 07:22
Search period end: 18 April 2014 07:22
Location: Melbourne, 37.8666°S, 145.1333°E

Satellite Date Start Highest point End Downlink Frequencies (MHz)
Time Altitude Azimuth
HO-68 17 Apr 07:24:53 07:30:37 27° 119° (ESE) 07:36:23 435.675 MHz FM
UOSAT-12 17 Apr 07:27:25 07:30:28 18° 226° (SW) 07:33:30 437.025 FM, 437.400 FM
SO-67 17 Apr 07:49:22 07:51:39 16° 273° (W) 07:53:57 435.3500 MHz FM
Oscar 10/S400 17 Apr 07:50:37 16:23:49 65° 24° (NNE) 17:24:16 145.825 - 145.975 CW/USB, Beacon 145.810 USB
Saudisat 1A 17 Apr 07:58:57 08:03:08 38° 127° (SE) 08:07:18 436.775 MHz
Oscar 11 17 Apr 08:46:29 08:50:27 34° 109° (ESE) 08:54:28 145.825 FM, Beacon 2401.500 USB
JAS-2 17 Apr 08:48:00 08:49:30 11° 263° (W) 08:51:01 435.800 - 435.900 CW/SSB, 435.910 FM
AO-40 17 Apr 08:52:13 10:16:02 24° 289° (WNW) 13:06:51 Beacon 2401.320
HO-68 17 Apr 09:10:44 09:17:48 59° 282° (WNW) 09:24:58 435.675 MHz FM
ISS 17 Apr 09:12:24 09:14:25 15° 159° (SSE) 09:16:26 145.800 FM
MaSat-1 17 Apr 09:31:15 09:36:17 68° 70° (ENE) 09:42:03 437.345 MHz
Saudisat 1A 17 Apr 09:39:10 09:42:29 21° 291° (WNW) 09:45:48 436.775 MHz
FUNcube-1 17 Apr 10:02:23 10:06:55 76° 104° (ESE) 10:11:37 145.950 - 145.970 MHz USB
Oscar 11 17 Apr 10:23:30 10:26:42 20° 274° (W) 10:29:56 145.825 FM, Beacon 2401.500 USB
ISS 17 Apr 10:48:15 10:51:39 76° 141° (SE) 10:55:01 145.800 FM
MaSat-1 17 Apr 11:11:44 11:15:35 19° 229° (SW) 11:19:41 437.345 MHz
SO-50 17 Apr 11:37:37 11:40:40 17° 136° (SE) 11:43:41 436.795 FM
Sapphire 17 Apr 11:40:57 11:44:32 18° 75° (ENE) 11:48:08 437.095 MHz 1200 baud AX-25 AFSK
PCSat 17 Apr 12:24:11 12:29:23 50° 68° (ENE) 12:34:37 145.825 MHz
OPAL 17 Apr 12:39:44 12:41:52 13° 121° (ESE) 12:44:00 ?
SO-50 17 Apr 13:17:03 13:21:42 63° 298° (WNW) 13:26:14 436.795 FM
Sapphire 17 Apr 13:22:08 13:27:27 56° 239° (WSW) 13:32:49 437.095 MHz 1200 baud AX-25 AFSK
AO-27 17 Apr 13:26:52 13:30:40 20° 87° (E) 13:34:26 436.795 MHz FM
ITAMSAT 1 17 Apr 13:37:59 13:42:18 25° 85° (E) 13:46:33 435.822 SSB
Oscar 19 17 Apr 13:49:02 13:54:11 62° 79° (E) 13:59:16 437.125 CW, 437.150 USB
Oscar 16 17 Apr 13:56:44 14:01:58 80° 77° (ENE) 14:07:06 437.025 USB, Beacon 2401.1428
PCSat 17 Apr 14:08:46 14:13:03 23° 230° (SW) 14:17:23 145.825 MHz
AO-Echo 17 Apr 14:14:05 14:19:11 47° 81° (E) 14:24:18 ?
OPAL 17 Apr 14:14:52 14:20:03 81° 285° (WNW) 14:25:15 ?
UOSAT-12 17 Apr 14:17:07 14:21:00 29° 129° (SE) 14:24:51 437.025 FM, 437.400 FM
Uribyol 2 17 Apr 14:26:28 14:31:47 79° 77° (ENE) 14:37:01 436.500 FM
Gurwin Techsat 1B 17 Apr 14:41:19 14:46:05 31° 84° (E) 14:50:47 435.225 FM
KITSAT 1 17 Apr 14:41:34 14:49:27 62° 67° (ENE) 14:57:23 435.175 FM
AO-27 17 Apr 15:05:19 15:10:24 47° 251° (WSW) 15:15:24 436.795 MHz FM
JAS-1B 17 Apr 15:06:18 15:15:02 34° 87° (E) 15:23:23 435.800 - 435.900 CW/SSB
ITAMSAT 1 17 Apr 15:16:59 15:21:50 37° 249° (WSW) 15:26:38 435.822 SSB
AO-7 17 Apr 15:17:06 15:21:37 15° 90° (E) 15:26:05 29.400 - 29.500 MHz
Oscar 19 17 Apr 15:30:00 15:32:58 16° 243° (WSW) 15:35:55 437.125 CW, 437.150 USB
TMSAT-1 17 Apr 15:31:00 15:36:22 67° 78° (ENE) 15:41:40 436.925 FM
Oscar 16 17 Apr 15:38:34 15:40:35 12° 241° (WSW) 15:42:35 437.025 USB, Beacon 2401.1428
AO-Echo 17 Apr 15:53:42 15:57:35 21° 246° (WSW) 16:01:30 ?
UOSAT-12 17 Apr 15:57:18 16:01:02 27° 293° (WNW) 16:04:46 437.025 FM, 437.400 FM
Uribyol 2 17 Apr 16:08:16 16:10:32 13° 241° (WSW) 16:12:47 436.500 FM
Uosat F 17 Apr 16:08:57 16:13:59 55° 79° (E) 16:18:57 435.120 FM
Gurwin Techsat 1B 17 Apr 16:21:17 16:25:57 31° 248° (WSW) 16:30:34 435.225 FM
KITSAT 1 17 Apr 16:38:20 16:45:19 31° 227° (SW) 16:52:22 435.175 FM
STRAND 1 17 Apr 16:50:54 16:53:33 14° 118° (ESE) 16:56:12 ?
JAS-1B 17 Apr 16:56:03 17:05:48 63° 250° (WSW) 17:15:15 435.800 - 435.900 CW/SSB
AO-7 17 Apr 17:06:57 17:15:25 87° 73° (ENE) 17:23:45 29.400 - 29.500 MHz
TMSAT-1 17 Apr 17:12:39 17:15:40 15° 242° (WSW) 17:18:41 436.925 FM
Hamsat 17 Apr 17:34:36 17:37:11 16° 88° (E) 17:39:43 145.90 MHz
Uosat F 17 Apr 17:49:04 17:52:17 17° 243° (WSW) 17:55:29 435.120 FM
MaSat-1 17 Apr 18:00:03 18:03:47 18° 132° (SE) 18:07:14 437.345 MHz
RS-15 17 Apr 18:05:35 18:16:29 48° 72° (ENE) 18:27:50 29.354 - 29.394 USB, Beacon 29.352 USB
JAS-2 17 Apr 18:09:42 18:15:20 22° 91° (E) 18:20:35 435.800 - 435.900 CW/SSB, 435.910 FM
STRAND 1 17 Apr 18:26:59 18:32:06 69° 282° (WNW) 18:37:18 ?
JAS-1B 17 Apr 18:49:16 18:54:19 16° 231° (SW) 18:59:24 435.800 - 435.900 CW/SSB
AO-7 17 Apr 19:01:22 19:07:08 21° 234° (SW) 19:12:53 29.400 - 29.500 MHz
Hamsat 17 Apr 19:09:20 19:13:20 39° 252° (WSW) 19:17:16 145.90 MHz
SO-67 17 Apr 19:14:28 19:17:50 39° 82° (E) 19:21:09 435.3500 MHz FM
MaSat-1 17 Apr 19:37:35 19:43:06 68° 291° (WNW) 19:47:47 437.345 MHz
JAS-2 17 Apr 19:53:13 20:00:59 69° 253° (WSW) 20:08:01 435.800 - 435.900 CW/SSB, 435.910 FM
RS-15 17 Apr 20:17:23 20:28:50 53° 229° (SW) 20:40:48 29.354 - 29.394 USB, Beacon 29.352 USB
Sapphire 17 Apr 20:30:31 20:32:58 13° 137° (SE) 20:35:23 437.095 MHz 1200 baud AX-25 AFSK
HO-68 17 Apr 20:40:55 20:47:07 30° 84° (E) 20:53:14 435.675 MHz FM
SO-67 17 Apr 20:49:28 20:50:35 11° 247° (WSW) 20:51:42 435.3500 MHz FM
PANSAT 17 Apr 21:07:46 21:09:31 13° 16° (NNE) 21:11:15 not established
PCSat 17 Apr 21:14:09 21:18:51 29° 127° (SE) 21:23:31 145.825 MHz
JAS-2 17 Apr 21:41:03 21:44:27 14° 233° (SW) 21:47:45 435.800 - 435.900 CW/SSB, 435.910 FM
FUNcube-1 17 Apr 21:55:00 21:58:08 18° 88° (E) 22:01:11 145.950 - 145.970 MHz USB
Saudisat 1A 17 Apr 22:05:57 22:08:17 14° 71° (ENE) 22:10:38 436.775 MHz
Oscar 11 17 Apr 22:11:39 22:16:05 88° 77° (ENE) 22:20:26 145.825 FM, Beacon 2401.500 USB
Sapphire 17 Apr 22:11:48 22:17:17 80° 118° (ESE) 22:22:42 437.095 MHz 1200 baud AX-25 AFSK
HO-68 17 Apr 22:28:06 22:34:58 48° 247° (WSW) 22:41:45 435.675 MHz FM
RS-15 17 Apr 22:36:47 22:45:17 21° 199° (SSW) 22:53:55 29.354 - 29.394 USB, Beacon 29.352 USB
KITSAT 1 17 Apr 22:37:14 22:43:38 25° 138° (SE) 22:49:59 435.175 FM
PANSAT 17 Apr 22:46:11 22:49:06 20° 3° (N) 22:52:02 not established
PCSat 17 Apr 22:57:19 23:02:19 38° 290° (WNW) 23:07:17 145.825 MHz
FUNcube-1 17 Apr 23:30:22 23:34:42 39° 252° (WSW) 23:38:53 145.950 - 145.970 MHz USB
Oscar 16 17 Apr 23:36:46 23:38:26 12° 120° (ESE) 23:40:07 437.025 USB, Beacon 2401.1428
Saudisat 1A 17 Apr 23:43:10 23:47:25 51° 236° (SW) 23:51:44 436.775 MHz
Sapphire 17 Apr 23:57:58 23:59:56 12° 282° (WNW) 00:01:54 437.095 MHz 1200 baud AX-25 AFSK
Uribyol 2 18 Apr 00:07:05 00:09:01 12° 120° (ESE) 00:10:58 436.500 FM
PANSAT 18 Apr 00:26:08 00:28:46 17° 350° (N) 00:31:24 not established
KITSAT 1 18 Apr 00:31:49 00:39:58 83° 297° (WNW) 00:48:05 435.175 FM
AO-27 18 Apr 00:43:14 00:47:30 26° 114° (ESE) 00:51:48 436.795 MHz FM
ITAMSAT 1 18 Apr 00:54:12 00:58:48 32° 112° (ESE) 01:03:26 435.822 SSB
RS-15 18 Apr 00:55:54 01:04:30 21° 162° (SSE) 01:13:00 29.354 - 29.394 USB, Beacon 29.352 USB
Oscar 19 18 Apr 01:04:00 01:09:11 75° 105° (ESE) 01:14:25 437.125 CW, 437.150 USB
Oscar 16 18 Apr 01:11:47 01:17:01 86° 284° (WNW) 01:22:17 437.025 USB, Beacon 2401.1428
TMSAT-1 18 Apr 01:15:07 01:16:11 11° 121° (ESE) 01:17:15 436.925 FM
AO-Echo 18 Apr 01:25:36 01:30:08 47° 108° (ESE) 01:34:51 ?
Uribyol 2 18 Apr 01:42:28 01:47:43 84° 283° (WNW) 01:53:03 436.500 FM
JAS-1B 18 Apr 01:50:52 01:56:02 21° 125° (SE) 02:01:48 435.800 - 435.900 CW/SSB
Gurwin Techsat 1B 18 Apr 02:00:34 02:05:33 41° 110° (ESE) 02:10:35 435.225 FM
AO-7 18 Apr 02:14:12 02:20:05 22° 126° (SE) 02:25:59 29.400 - 29.500 MHz
AO-27 18 Apr 02:22:01 02:26:48 36° 278° (W) 02:31:40 436.795 MHz FM
OPAL 18 Apr 02:27:10 02:31:34 30° 81° (E) 02:35:54 ?
KITSAT 1 18 Apr 02:30:13 02:34:08 14° 280° (W) 02:38:02 435.175 FM
ITAMSAT 1 18 Apr 02:33:44 02:38:14 29° 276° (W) 02:42:48 435.822 SSB
Oscar 19 18 Apr 02:47:17 02:49:02 12° 270° (W) 02:50:47 437.125 CW, 437.150 USB
TMSAT-1 18 Apr 02:49:54 02:55:14 86° 104° (ESE) 03:00:38 436.925 FM
AO-Echo 18 Apr 03:06:13 03:09:12 16° 272° (W) 03:12:14 ?
RS-15 18 Apr 03:09:03 03:21:01 52° 131° (SE) 03:32:32 29.354 - 29.394 USB, Beacon 29.352 USB
Uosat F 18 Apr 03:20:22 03:25:20 63° 107° (ESE) 03:30:23 435.120 FM
ISS 18 Apr 03:29:29 03:32:50 69° 42° (NE) 03:36:14 145.800 FM
SO-50 18 Apr 03:29:46 03:34:33 66° 62° (ENE) 03:39:23 436.795 FM
JAS-1B 18 Apr 03:38:23 03:45:19 81° 283° (WNW) 03:53:48 435.800 - 435.900 CW/SSB
Gurwin Techsat 1B 18 Apr 03:41:30 03:45:38 23° 274° (W) 03:49:50 435.225 FM
AO-7 18 Apr 04:03:27 04:11:51 85° 287° (WNW) 04:20:21 29.400 - 29.500 MHz
OPAL 18 Apr 04:06:04 04:10:21 29° 246° (WSW) 04:14:35 ?
Hamsat 18 Apr 04:28:45 04:29:21 10° 117° (ESE) 04:29:58 145.90 MHz
UOSAT-12 18 Apr 04:29:07 04:31:01 13° 72° (ENE) 04:32:55 437.025 FM, 437.400 FM
TMSAT-1 18 Apr 04:35:36 04:35:47 10° 269° (W) 04:35:57 436.925 FM
Uosat F 18 Apr 05:02:09 05:04:32 13° 271° (W) 05:06:57 435.120 FM
ISS 18 Apr 05:07:27 05:09:54 18° 205° (SSW) 05:12:21 145.800 FM
SO-50 18 Apr 05:12:23 05:15:36 17° 224° (SW) 05:18:49 436.795 FM
RS-15 18 Apr 05:21:58 05:33:26 49° 289° (WNW) 05:44:29 29.354 - 29.394 USB, Beacon 29.352 USB
JAS-1B 18 Apr 05:35:00 05:37:33 12° 262° (W) 05:40:16 435.800 - 435.900 CW/SSB
SO-67 18 Apr 05:48:40 05:49:52 11° 113° (ESE) 05:51:04 435.3500 MHz FM
Hamsat 18 Apr 06:00:20 06:04:43 71° 281° (W) 06:09:08 145.90 MHz
AO-7 18 Apr 06:01:21 06:05:40 15° 270° (W) 06:10:01 29.400 - 29.500 MHz
JAS-2 18 Apr 06:01:51 06:08:25 48° 112° (ESE) 06:15:42 435.800 - 435.900 CW/SSB, 435.910 FM
UOSAT-12 18 Apr 06:06:07 06:10:38 63° 237° (WSW) 06:15:07 437.025 FM, 437.400 FM
Saudisat 1A 18 Apr 06:35:21 06:35:33 10° 140° (SE) 06:35:44 436.775 MHz
STRAND 1 18 Apr 06:39:36 06:44:39 47° 81° (E) 06:49:37 ?
HO-68 18 Apr 07:09:02 07:13:59 20° 122° (ESE) 07:18:58 435.675 MHz FM
